Regional Weather Roundup
Issued by NWS

Home | Current Version | Previous Version | Graphics & Text | Print | Product List | Glossary On
Versions: 1 2 3 4 5 6 7 8 9 10 11 12 13 14 15 16 17 18 19 20 21 22 23 24 25 26 27 28 29 30 31 32 33 34 35 36 37 38 39 40 41 42 43 44 45 46 47 48 49 50
000
ASUS43 KDTX 180110
RWRMI
MICHIGAN HOURLY REGIONAL WEATHER ROUNDUP
NATIONAL WEATHER SERVICE DETROIT/PONTIAC MI
800 PM EST FRI NOV 17 2017

NOTE: "FAIR" INDICATES FEW OR NO CLOUDS BELOW 12,000 FEET WITH NO
SIGNIFICANT WEATHER AND/OR OBSTRUCTION TO VISIBILITY.

MIZ047>049-052>055-059>063-066>070-074>076-081>083-180200-
SOUTHEAST LOWER MICHIGAN

CITY           SKY/WX    TMP DP  RH WIND       PRES   REMARKS
ADRIAN         MOCLDY    41  34  76 S12       29.87F
ALMA           LGT SNOW  38  36  91 S5        29.79F WCI  35
ANN ARBOR      CLOUDY    40  33  76 SE7       29.86F
BAD AXE        PTCLDY    38  33  81 S16G22    29.83F WCI  29
CARO           MOCLDY    39  32  75 S10       29.82F WCI  32
DETROIT CITY   CLOUDY    42  33  70 S10       29.89F
DETROIT        CLOUDY    43  34  70 SE7       29.88F
FLINT          CLOUDY    41  32  70 S16G24    29.82F
GROSSE ILE     CLOUDY    44  36  74 S14       29.88F
HILLSDALE      CLOUDY    41  32  70 SE12G22   29.79F
HOWELL         CLOUDY    40  34  78 S16       29.82F WCI  32

CITY           SKY/WX    TMP DP  RH WIND       PRES   REMARKS
JACKSON        CLOUDY    43  33  68 SE16G24   29.80F
LAMBERTVILLE   CLOUDY    45  33  64 S7        29.87F
LANSING        LGT RAIN  42  35  76 S14       29.80F
LAPEER         FAIR      40  32  74 S9        29.84F WCI  34
MASON          LGT RAIN  42  35  74 S13G25    29.79F
MONROE         CLOUDY    44  34  68 SE10G16   29.87F
MT. CLEMENS    CLOUDY    42  37  83 S13       29.86F
PONTIAC        CLOUDY    40  33  76 S12G21    29.84F WCI  33
PORT HOPE        N/A     40  32  73 S15G23    29.81F WCI  32
PORT HURON     CLOUDY    39  32  75 S9        29.88F WCI  33
TRI CITIES     LGT RAIN  40  33  76 S12       29.82F WCI  33
MIDLAND        DRIZZLE   39  32  75 S8        29.79F WCI  34
TROY           PTCLDY    43  34  69 S7        29.89F
SAGINAW HB     CLOUDY    39  32  75 S9G17     29.81F WCI  33
$$
MIZ043>046-050>051-056>058-064>065-071>073-077>080-180200-
SOUTHWEST LOWER MICHIGAN

CITY           SKY/WX    TMP DP  RH WIND       PRES   REMARKS
BATTLE CREEK   CLOUDY    44  33  65 S21G26    29.75F
BENTON HARBOR  TSTM      44  35  70 S8G17     29.70F
BIG RAPIDS     CLOUDY    37  34  87 SE9G20    29.70F WCI  31
COLDWATER      CLOUDY    44  32  64 SE14G21   29.78F
FREMONT        LGT RAIN  39  37  93 SE10      29.68F WCI  32
HOLLAND        CLOUDY    42  36  79 SE14G23   29.70F
GRAND RAPIDS   LGT RAIN  41  39  93 SE10      29.72F
IONIA          LGT RAIN  40  36  84 SE10      29.75F WCI  34
KALAMAZOO      CLOUDY    44  32  62 S14G20    29.75F
LUDINGTON      CLOUDY    39  36  86 S9G18     29.67F WCI  33
MARSHALL       CLOUDY    43  32  66 SE10      29.77F
MOUNT PLEASANT LGT RAIN  39  33  80 SE9       29.76F WCI  32
MUSKEGON       CLOUDY    42  36  79 SE12      29.69F
SOUTH HAVEN    LGT RAIN  46  34  64 SE10G20   29.70F
$$
MIZ016>042-180200-
NORTHERN LOWER MICHIGAN

CITY           SKY/WX    TMP DP  RH WIND       PRES   REMARKS
ALPENA         LGT RAIN  36  33  89 SE12      29.77F WCI  28
BEAVER ISLAND  LGT RAIN  38  37  95 SE6       29.70F WCI  33
BELLAIRE       MIX PCPN  37  35  90 S8G20     29.67F WCI  31
CADILLAC       CLOUDY    36  33  90 SE12G17   29.67F WCI  27
CHARLEVOIX     LGT RAIN  36  35  96 CALM      29.75R
FRANKFORT      CLOUDY    41  35  77 S8        29.67R
GAYLORD        LGT RAIN  33  29  85 S16G29    29.66F WCI  23
GRAYLING       MIX PCPN  35  32  88 SE8       29.71F WCI  28
HARBOR SPRINGS LGT RAIN  34  34  99 N5        29.73R WCI  30
HOUGHTON LAKE  LGT RAIN  36  31  82 SE9G21    29.73F WCI  29
MANISTEE       LGT RAIN  39  35  86 S9        29.65F WCI  33
OSCODA         MIX PCPN  39  32  75 S13       29.79F WCI  32
PELLSTON       LGT RAIN  34  33  96 E5        29.74R FOG     WCI  30
ROGERS CITY    LGT RAIN  35  32  87 SE10G16   29.74F WCI  28
TRAVERSE CITY  CLOUDY    39  34  82 VRB5      29.65F
$$
MIZ007>008-015-180200-
EASTERN UPPER MICHIGAN

CITY           SKY/WX    TMP DP  RH WIND       PRES   REMARKS
KINROSS        LGT RAIN  33  32  96 SE14      29.74F WCI  23
MACKINAC ISLAN LGT SNOW  35  32  88 SE6       29.74F WCI  30
NEWBERRY       MIX PCPN  32  32  99 SE6       29.69F WCI  26
S. S. MARIE    LGT RAIN  36  32  85 SE9       29.74F WCI  29
MUNISING         N/A     38  38 100 CALM      29.64F
$$
MIZ004>006-011>014-085-180200-
CENTRAL UPPER MICHIGAN

CITY           SKY/WX    TMP DP  RH WIND       PRES   REMARKS
MANISTIQUE     RAIN      40  35  82 S10G21    29.66F WCI  33
ESCANABA       LGT RAIN  39  38  96 CALM      29.66F
MENOMINEE      LGT RAIN  38  37  97 SW6       29.66S FOG     WCI  33
SAWYER-GWINN   LGT SNOW  34  34 100 SW5       29.64F WCI  30
$$
MIZ001>003-009>011-084-180200-
WESTERN UPPER MICHIGAN

CITY           SKY/WX    TMP DP  RH WIND       PRES   REMARKS
IRON MOUNTAIN  HVY RAIN  34  32  92 CALM      29.62R FOG
HOUGHTON       LGT SNOW  33  31  92 CALM      29.62F FOG
COPPER HARBOR    N/A     34  32  92 CALM      29.65S
IRONWOOD       CLOUDY   N/A N/A N/A SW3       29.65S
$$

ABBREVIATIONS USED IN REMARKS
   TC - TEMPERATURE IN CELSIUS
  WCI - WIND CHILL INDEX
   HX - HEAT INDEX
  VSB - VISIBILITY




USA.gov is the U.S. government's official web portal to all federal, state and local government web resources and services.